Change the Weather History Date:

Tuesday, May 28, 2013

  Actual Average Record
Temperature  
Mean Temperature 70 °F 66 °F  
Max Temperature 86 °F 83 °F 101 °F (1973)
Min Temperature 54 °F 48 °F 39 °F (2008)
Degree Days  
Heating Degree Days 0 2  
Month to date heating degree days 35 102  
Since 1 July heating degree days 2383 2814  
Cooling Degree Days 5 3  
Month to date cooling degree days 85 50  
Year to date cooling degree days 114 59  
Growing Degree Days 20 (Base 50)    
Moisture  
Dew Point 50 °F    
Average Humidity 57    
Maximum Humidity 86    
Minimum Humidity 27    
Precipitation  
Precipitation 0.00 in 0.00 in 0.17 in (1998)
Month to date precipitation 0.05 0.25  
Year to date precipitation 1.46 8.76  
Since 1 July precipitation 4.67 12.75  
Sea Level Pressure  
Sea Level Pressure 29.92 in    
Wind  
Wind Speed 12 mph (NW)    
Max Wind Speed 25 mph    
Max Gust Speed 31 mph    
Visibility 10 miles    
Events      
T = Trace of Precipitation, MM = Missing Value Source: NWS Daily Summary

Daily Weather History Graph

Daily Weather History Graph

Search for Another Location

Airport or City:

Trip Planner

Search our weather history database for the weather conditions in past years. The results will help you decide how hot, cold, wet, or windy it might be!

Date:

Astronomy

May. 28, 2013 Rise Set
Actual Time 5:49 AM PDT 8:10 PM PDT
Civil Twilight 5:20 AM PDT 8:40 PM PDT
Nautical Twilight 4:44 AM PDT 9:16 PM PDT
Astronomical Twilight 4:04 AM PDT 9:55 PM PDT
Moon 11:42 PM PDT (5/28) 9:40 AM PDT (5/28)
Length of Visible Light 15h 19m
Length of Day
14h 21m
Waning Gibbous, 82% of the Moon is Illuminated
May 28
Waning Gibbous
May 31
Last Quarter
Jun 8
New
Jun 16
First Quarter
Jun 23
Full

Hourly Weather History & Observations

Time (PDT) Temp. Dew Point Humidity Pressure Visibility Wind Dir Wind Speed Gust Speed Precip Events Conditions
12:53 AM 57.0 °F 50.0 °F 77% 29.99 in 10.0 mi NW 12.7 mph - N/A   Clear
1:53 AM 55.9 °F 50.0 °F 80% 29.98 in 10.0 mi WNW 5.8 mph - N/A   Clear
2:53 AM 55.9 °F 51.1 °F 84% 29.97 in 10.0 mi Calm Calm - N/A   Clear
3:53 AM 55.0 °F 50.0 °F 83% 29.96 in 10.0 mi WSW 4.6 mph - N/A   Partly Cloudy
4:53 AM 55.9 °F 51.1 °F 84% 29.96 in 10.0 mi NW 6.9 mph - N/A   Mostly Cloudy
5:53 AM 55.9 °F 52.0 °F 87% 29.96 in 10.0 mi NNW 3.5 mph - N/A   Scattered Clouds
6:02 AM 55.4 °F 51.8 °F 88% 29.97 in 10.0 mi Calm Calm - N/A   Mostly Cloudy
6:53 AM 57.0 °F 52.0 °F 83% 29.95 in 10.0 mi WNW 4.6 mph - N/A   Overcast
7:53 AM 59.0 °F 53.1 °F 81% 29.96 in 10.0 mi NNW 10.4 mph - N/A   Overcast
8:09 AM 60.8 °F 53.6 °F 77% 29.97 in 10.0 mi NW 12.7 mph - N/A   Overcast
8:41 AM 62.6 °F 53.6 °F 72% 29.96 in 10.0 mi NNW 10.4 mph - N/A   Scattered Clouds
8:53 AM 64.0 °F 54.0 °F 70% 29.95 in 10.0 mi NNW 8.1 mph - N/A   Scattered Clouds
9:07 AM 64.4 °F 53.6 °F 68% 29.96 in 10.0 mi NW 11.5 mph - N/A   Mostly Cloudy
9:44 AM 68.0 °F 53.6 °F 60% 29.95 in 10.0 mi NNW 15.0 mph 21.9 mph N/A   Scattered Clouds
9:53 AM 69.1 °F 54.0 °F 58% 29.94 in 10.0 mi NNW 16.1 mph 23.0 mph N/A   Partly Cloudy
10:53 AM 72.0 °F 53.1 °F 51% 29.93 in 10.0 mi NNW 16.1 mph - N/A   Clear
11:53 AM 73.9 °F 52.0 °F 46% 29.91 in 10.0 mi Variable 5.8 mph - N/A   Clear
12:53 PM 80.1 °F 48.9 °F 34% 29.88 in 10.0 mi WNW 15.0 mph 23.0 mph N/A   Clear
1:53 PM 82.0 °F 48.9 °F 31% 29.87 in 10.0 mi NW 13.8 mph 25.3 mph N/A   Clear
2:53 PM 84.0 °F 48.0 °F 28% 29.86 in 10.0 mi NW 16.1 mph - N/A   Clear
3:53 PM 84.9 °F 46.0 °F 26% 29.85 in 10.0 mi NNW 19.6 mph - N/A   Clear
4:53 PM 84.0 °F 46.0 °F 26% 29.84 in 10.0 mi NNW 20.7 mph - N/A   Clear
5:53 PM 82.0 °F 46.9 °F 29% 29.83 in 10.0 mi NNW 21.9 mph 27.6 mph N/A   Clear
6:53 PM 78.1 °F 46.9 °F 33% 29.83 in 10.0 mi NW 24.2 mph 28.8 mph N/A   Clear
7:53 PM 73.9 °F 46.9 °F 38% 29.84 in 10.0 mi NNW 16.1 mph - N/A   Clear
8:53 PM 68.0 °F 48.9 °F 50% 29.85 in 10.0 mi NW 18.4 mph - N/A   Clear
9:53 PM 63.0 °F 46.9 °F 56% 29.91 in 10.0 mi WNW 17.3 mph 23.0 mph N/A   Clear
10:53 PM 60.1 °F 46.0 °F 60% 29.91 in 10.0 mi West 11.5 mph - N/A   Clear
11:53 PM 57.9 °F 46.0 °F 65% 29.91 in 10.0 mi NW 6.9 mph - N/A   Clear